{"data":{"norad_id":57356,"epoch":"2026-09-20T06:15:16.169184Z","epoch_age_seconds":144875,"freshness":"FRESH","line1":"1 57356U 23099AE  26263.26060381 -.00000154  00000+0  39108-5 0  9990","line2":"2 57356  43.0017 223.0808 0000588 255.5112 104.5674 15.27574657175951","mean_motion":15.27574657,"eccentricity":5.88e-5,"inclination_deg":43.0017,"raan_deg":223.0808,"arg_perigee_deg":255.5112,"mean_anomaly_deg":104.5674,"bstar":3.9108e-6,"rev_number":17595,"period_min":94.26707843059,"perigee_km":482.66165626724,"apogee_km":483.4685336336,"semimajor_km":6861.2020949504,"source":"CELESTRAK","updated_at":"2026-09-21T09:00:33.601748Z"}}